Погода в Есиповом

Россия / Новгородская область     57°37′45″N   32°51′09″E
темп.,
°C
ветер,
м/с
пор.,
м/с
влажн.,
%
обл.,
%
осадки,
мм/ч
давл.,
гПа
погр.,
м
7 марта, вс
вс700:00−4юз71594100 1.9 10001233
03:00−3юз81694100 4.7 9951226
06:00−2юз71595100 2.8 9901187
09:00−5зсз81479100 7.1 9901519
12:00−5зсз8145879 0.2 9922551
15:00−5зсз7126089 0.8 9922093
18:00−6з4894100 0.6 992768
21:00−7ссз3795100 1.4 993496
8 марта, пн
пн800:00−11сз3109588 0.0 995310
03:00−9сз5119483 0.3 998715
06:00−9ссз51093100 0.8 1000780
09:00−10ссз5991100 1.1 1003747
12:00−9ссз4786100 0.2 1006752
15:00−8ссз5785100 0.3 1009772
18:00−10ссз3889100 0.1 1011514
21:00−14ссз259786 0.1 1014116
9 марта, вт
вт900:00−17с229971 0.0 101629
03:00−19ссз129973 0.0 101820
06:00−19ссз129989 0.0 101924
09:00−18с239368 0.0 1020179
12:00−13сз248158 0.0 1021543
15:00−11сз237373 0.0 1021793
18:00−12ссв1285100 0.0 102044
21:00−15всв2490100 0.0 102295
10 марта, ср
ср1000:00−16в4889100 0.0 1023250
03:00−19вюв498997 0.0 1024260
06:00−20вюв38910 0.0 1025200
09:00−19вюв37820 0.0 1026228
12:00−13в367016 0.0 1027554
15:00−11в347045 0.0 1027788
18:00−14в2285100 0.0 102750
21:00−18вюв368994 0.0 1027104
11 марта, чт
чт1100:00−20юв25918 0.0 1027112
03:00−20юв38894 0.0 1027178
06:00−20юв49860 0.0 1026254
09:00−18юв510760 0.0 1024319
12:00−12юв510720 0.0 1022497
15:00−8ююв511790 0.0 1018677
18:00−10ююв5138691 0.0 1015563
21:00−12ююв6158995 0.0 1012446